This is the latest recevied weather packets stored in our database for station/object R1ZAAG-14. If no packets are shown the sender has not sent any weather packets the latest 10 day(s).
| Time | Temp. | Humidity | Pressure | Rain* | Wind** | Luminosity | Snow |
|---|---|---|---|---|---|---|---|
| 1778188299 | 0.56° C | 100% | 1019.1 hPa | - | - | - | - |
| 1778188294 | 0.56° C | 100% | 1019.1 hPa | - | - | - | - |
| 1778187398 | 1.11° C | 100% | 1019 hPa | - | - | - | - |
| 1778187393 | 1.11° C | 100% | 1019 hPa | - | - | - | - |
| 1778186497 | 1.11° C | 100% | 1018.9 hPa | - | - | - | - |
| 1778186492 | 1.11° C | 100% | 1018.9 hPa | - | - | - | - |
| 1778185596 | 1.11° C | 100% | 1018.8 hPa | - | - | - | - |
| 1778185591 | 1.11° C | 100% | 1018.8 hPa | - | - | - | - |
| 1778184696 | 1.11° C | 81% | 1018.6 hPa | - | - | - | - |
| 1778184691 | 1.11° C | 81% | 1018.6 hPa | - | - | - | - |
| 1778183795 | 1.67° C | 77% | 1018.5 hPa | - | - | - | - |
| 1778183791 | 1.67° C | 77% | 1018.5 hPa | - | - | - | - |
| 1778182897 | 1.67° C | 74% | 1018.4 hPa | - | - | - | - |
| 1778182889 | 1.67° C | 74% | 1018.4 hPa | - | - | - | - |
| 1778181994 | 1.67° C | 74% | 1018.3 hPa | - | - | - | - |
| 1778181989 | 1.67° C | 74% | 1018.3 hPa | - | - | - | - |
| 1778181094 | 2.22° C | 71% | 1018.1 hPa | - | - | - | - |
| 1778181089 | 2.22° C | 71% | 1018.1 hPa | - | - | - | - |
| 1778180193 | 3.33° C | 67% | 1018 hPa | - | - | - | - |
| 1778180188 | 3.33° C | 67% | 1018 hPa | - | - | - | - |
| 1778179292 | 3.33° C | 67% | 1017.8 hPa | - | - | - | - |
| 1778179287 | 3.33° C | 67% | 1017.8 hPa | - | - | - | - |
| 1778178392 | 3.89° C | 65% | 1017.8 hPa | - | - | - | - |
| 1778178387 | 3.89° C | 65% | 1017.8 hPa | - | - | - | - |
| 1778177491 | 5.56° C | 60% | 1017.5 hPa | - | - | - | - |
* Rain since midnight (hover to see other rain measurements)
** Current wind speed in m/s (hover to see current wind gust speed)